Location: Grasslands National Park East Block
(49.0708°N, 106.5295°W)
Time: 23:44:51
(UTC-06:00)

Vanguard 1 - Pass Details

Date: 23 September 2019
Orbit: 653 x 3830 km, 34.2° (Epoch: 20 October)

Event Time Altitude Azimuth Distance (km) Brightness Sun altitude
Rises 08:49:01 0° 278° (W) 7,483 14.0 17.6°
Reaches altitude 10° 08:56:20 10° 266° (W) 5,961 13.6 18.7°
Maximum altitude 09:07:04 20° 227° (SW) 4,142 13.2 20.3°
Drops below altitude 10° 09:14:45 10° 184° (S) 4,082 13.6 21.4°
Sets 09:18:30 0° 168° (SSE) 4,609 14.1 22.0°
